When you browse on this site, cookies collect data to enhance your experience and personalize the content and advertising you see.
Visit our Privacy Policy to learn more. By continuing to use the site, you agree to this use of cookies and data.
  • în România
  • Lista ţărilor
  • Pe 7 zile
  • Temperatura apei
  • Hartă satelitară
  • Meteo pe hartă
  • Widget-uri
  • user-avatar
    Intrare

    Meteo pe oră la Tervayarvi

    Astăzi, 17 Februarie, Duminică

    Timp Temperatura Precipitaţii Vânt Presiune Umiditate
    00:00 -2°C° 0 mm 6 m/s 742 mmHg 80%
    01:00 -3°C° 0 mm 6 m/s 742 mmHg 78%
    02:00 -3°C° 0 mm 7 m/s 741 mmHg 75%
    03:00 -3°C° 0 mm 7 m/s 741 mmHg 74%
    04:00 -3°C° 0 mm 7 m/s 741 mmHg 73%
    05:00 -4°C° 0 mm 8 m/s 741 mmHg 72%
    06:00 -4°C° 0 mm 8 m/s 741 mmHg 72%
    07:00 -4°C° 0 mm 8 m/s 742 mmHg 72%
    08:00 -2°C° 0 mm 8 m/s 742 mmHg 74%
    09:00 -2°C° 0 mm 8 m/s 743 mmHg 72%
    10:00 -2°C° 0 mm 8 m/s 744 mmHg 70%
    11:00 -4°C° 0 mm 9 m/s 745 mmHg 69%
    12:00 -4°C° 0 mm 9 m/s 746 mmHg 69%
    13:00 -4°C° 0 mm 8 m/s 748 mmHg 69%
    14:00 -3°C° 0 mm 7 m/s 749 mmHg 67%
    15:00 -4°C° 0 mm 7 m/s 750 mmHg 69%
    16:00 -6°C° 0 mm 7 m/s 751 mmHg 70%
    17:00 -6°C° 0 mm 6 m/s 753 mmHg 72%
    18:00 -6°C° 0 mm 6 m/s 754 mmHg 74%
    19:00 -8°C° 0 mm 6 m/s 755 mmHg 76%
    20:00 -8°C° 0 mm 5 m/s 756 mmHg 78%
    21:00 -8°C° 0 mm 5 m/s 757 mmHg 80%
    22:00 -10°C° 0 mm 5 m/s 757 mmHg 83%
    23:00 -10°C° 0 mm 4 m/s 758 mmHg 85%

    Mâine, 18 Februarie, Luni

    Timp Temperatura Precipitaţii Vânt Presiune Umiditate
    00:00 -10°C° 0 mm 4 m/s 759 mmHg 87%
    01:00 -11°C° 0 mm 4 m/s 760 mmHg 88%
    02:00 -11°C° 0 mm 4 m/s 760 mmHg 90%
    03:00 -12°C° 0 mm 3 m/s 761 mmHg 91%
    04:00 -13°C° 0 mm 3 m/s 761 mmHg 92%
    05:00 -13°C° 0 mm 2 m/s 761 mmHg 93%
    06:00 -13°C° 0 mm 2 m/s 761 mmHg 92%
    07:00 -11°C° 0 mm 1 m/s 761 mmHg 91%
    08:00 -12°C° 0 mm 0 m/s 762 mmHg 90%
    09:00 -10°C° 0 mm 1 m/s 762 mmHg 87%
    10:00 -8°C° 0 mm 1 m/s 761 mmHg 84%
    11:00 -8°C° 0 mm 2 m/s 761 mmHg 82%
    12:00 -7°C° 0 mm 2 m/s 761 mmHg 81%
    13:00 -7°C° 0 mm 3 m/s 760 mmHg 80%
    14:00 -8°C° 0 mm 4 m/s 759 mmHg 79%
    15:00 -7°C° 0 mm 4 m/s 759 mmHg 77%
    16:00 -7°C° 0 mm 5 m/s 758 mmHg 75%
    17:00 -7°C° 0 mm 5 m/s 757 mmHg 73%
    18:00 -6°C° 0 mm 6 m/s 756 mmHg 76%
    19:00 -6°C° 0 mm 6 m/s 755 mmHg 78%
    20:00 -5°C° 0 mm 6 m/s 754 mmHg 81%
    21:00 -4°C° 0 mm 6 m/s 753 mmHg 82%
    22:00 -3°C° 0 mm 6 m/s 751 mmHg 84%
    23:00 -2°C° 0 mm 6 m/s 750 mmHg 86%

    Poimâine, 19 Februarie, Marţi

    Timp Temperatura Precipitaţii Vânt Presiune Umiditate
    00:00 -2°C° 0.1 mm 6 m/s 750 mmHg 88%
    01:00 -1°C° 0.1 mm 7 m/s 749 mmHg 89%
    02:00 -1°C° 0.1 mm 7 m/s 749 mmHg 91%
    03:00 -1°C° 0 mm 7 m/s 748 mmHg 91%
    04:00 -1°C° 0 mm 6 m/s 748 mmHg 92%
    05:00 -1°C° 0 mm 6 m/s 747 mmHg 93%
    06:00 -1°C° 0 mm 6 m/s 747 mmHg 93%
    07:00 -1°C° 0 mm 6 m/s 746 mmHg 93%
    08:00 -1°C° 0 mm 6 m/s 746 mmHg 93%
    09:00 -1°C° 0 mm 6 m/s 746 mmHg 93%
    10:00 -1°C° 0 mm 6 m/s 746 mmHg 93%
    11:00 -1°C° 0 mm 6 m/s 745 mmHg 93%
    12:00 0°C° 0.3 mm 5 m/s 745 mmHg 94%
    13:00 0°C° 0.3 mm 5 m/s 745 mmHg 94%
    14:00 0°C° 0.3 mm 5 m/s 744 mmHg 94%
    15:00 0°C° 0.5 mm 5 m/s 744 mmHg 94%
    16:00 0°C° 0.5 mm 5 m/s 743 mmHg 95%
    17:00 0°C° 0.5 mm 4 m/s 742 mmHg 95%
    18:00 0°C° 0.6 mm 4 m/s 742 mmHg 95%
    19:00 0°C° 0.6 mm 4 m/s 741 mmHg 95%
    20:00 0°C° 0.6 mm 4 m/s 741 mmHg 95%
    21:00 0°C° 0.1 mm 4 m/s 740 mmHg 95%
    22:00 0°C° 0.1 mm 4 m/s 740 mmHg 95%
    23:00 -1°C° 0.1 mm 4 m/s 740 mmHg 95%

    20 Februarie, Miercuri

    Timp Temperatura Precipitaţii Vânt Presiune Umiditate
    00:00 -1°C° 0 mm 4 m/s 739 mmHg 95%
    01:00 -1°C° 0 mm 4 m/s 739 mmHg 95%
    02:00 0°C° 0 mm 3 m/s 738 mmHg 96%
    03:00 -1°C° 0 mm 4 m/s 738 mmHg 95%
    04:00 -1°C° 0 mm 4 m/s 738 mmHg 95%
    05:00 -1°C° 0 mm 4 m/s 737 mmHg 94%
    06:00 -1°C° 0.1 mm 4 m/s 737 mmHg 93%
    07:00 -1°C° 0.1 mm 4 m/s 737 mmHg 93%
    08:00 -1°C° 0.1 mm 4 m/s 736 mmHg 92%
    09:00 -1°C° 0 mm 4 m/s 736 mmHg 92%
    10:00 -1°C° 0 mm 4 m/s 736 mmHg 92%
    11:00 0°C° 0 mm 3 m/s 736 mmHg 91%
    12:00 0°C° 0.3 mm 3 m/s 736 mmHg 91%
    13:00 0°C° 0.3 mm 3 m/s 736 mmHg 90%
    14:00 0°C° 0.3 mm 3 m/s 736 mmHg 89%
    15:00 -2°C° 0.1 mm 4 m/s 737 mmHg 88%
    16:00 -2°C° 0.1 mm 4 m/s 737 mmHg 86%
    17:00 -3°C° 0.1 mm 4 m/s 737 mmHg 85%
    18:00 -3°C° 0.3 mm 4 m/s 738 mmHg 87%
    19:00 -3°C° 0.3 mm 4 m/s 739 mmHg 90%
    20:00 -3°C° 0.3 mm 4 m/s 739 mmHg 93%
    21:00 -5°C° 0.3 mm 6 m/s 740 mmHg 90%
    22:00 -7°C° 0.3 mm 7 m/s 741 mmHg 88%
    23:00 -8°C° 0.3 mm 8 m/s 742 mmHg 86%

    21 Februarie, Joi

    Timp Temperatura Precipitaţii Vânt Presiune Umiditate
    00:00 -10°C° 0.3 mm 9 m/s 743 mmHg 84%
    01:00 -11°C° 0.3 mm 9 m/s 745 mmHg 82%
    02:00 -12°C° 0.3 mm 9 m/s 746 mmHg 80%
    03:00 -12°C° 0.1 mm 9 m/s 748 mmHg 79%
    04:00 -12°C° 0.1 mm 9 m/s 749 mmHg 77%
    05:00 -12°C° 0.1 mm 9 m/s 750 mmHg 76%
    06:00 -12°C° 0 mm 8 m/s 752 mmHg 75%
    07:00 -12°C° 0 mm 8 m/s 753 mmHg 75%
    08:00 -12°C° 0 mm 8 m/s 754 mmHg 74%
    09:00 -13°C° 0 mm 7 m/s 756 mmHg 74%
    10:00 -13°C° 0 mm 7 m/s 757 mmHg 74%
    11:00 -13°C° 0 mm 7 m/s 758 mmHg 74%
    12:00 -11°C° 0 mm 6 m/s 759 mmHg 73%
    13:00 -11°C° 0 mm 6 m/s 759 mmHg 72%
    14:00 -11°C° 0 mm 5 m/s 760 mmHg 71%
    15:00 -11°C° 0 mm 5 m/s 761 mmHg 73%
    16:00 -12°C° 0 mm 5 m/s 762 mmHg 75%
    17:00 -11°C° 0 mm 4 m/s 762 mmHg 76%
    18:00 -12°C° 0 mm 4 m/s 763 mmHg 79%
    19:00 -12°C° 0 mm 4 m/s 764 mmHg 82%
    20:00 -13°C° 0 mm 3 m/s 764 mmHg 85%
    21:00 -13°C° 0 mm 3 m/s 765 mmHg 86%
    22:00 -14°C° 0 mm 3 m/s 765 mmHg 87%
    23:00 -14°C° 0 mm 3 m/s 766 mmHg 88%

    22 Februarie, Vineri

    Timp Temperatura Precipitaţii Vânt Presiune Umiditate
    00:00 -13°C° 0 mm 2 m/s 766 mmHg 87%
    01:00 -13°C° 0 mm 2 m/s 767 mmHg 86%
    02:00 -13°C° 0 mm 2 m/s 767 mmHg 85%
    03:00 -13°C° 0 mm 2 m/s 768 mmHg 83%
    04:00 -13°C° 0 mm 2 m/s 768 mmHg 82%
    05:00 -13°C° 0 mm 2 m/s 768 mmHg 80%
    06:00 -14°C° 0 mm 3 m/s 769 mmHg 79%
    07:00 -14°C° 0 mm 3 m/s 769 mmHg 78%
    08:00 -14°C° 0 mm 3 m/s 769 mmHg 76%
    09:00 -13°C° 0 mm 3 m/s 770 mmHg 74%
    10:00 -10°C° 0 mm 3 m/s 770 mmHg 72%
    11:00 -10°C° 0 mm 4 m/s 770 mmHg 70%
    12:00 -9°C° 0 mm 3 m/s 770 mmHg 70%
    13:00 -8°C° 0 mm 3 m/s 770 mmHg 69%
    14:00 -7°C° 0 mm 3 m/s 770 mmHg 69%
    15:00 -8°C° 0 mm 3 m/s 770 mmHg 74%
    16:00 -9°C° 0 mm 3 m/s 770 mmHg 78%
    17:00 -9°C° 0 mm 2 m/s 770 mmHg 83%
    18:00 -8°C° 0 mm 2 m/s 770 mmHg 84%
    19:00 -9°C° 0 mm 3 m/s 769 mmHg 85%
    20:00 -9°C° 0 mm 3 m/s 769 mmHg 86%
    21:00 -8°C° 0 mm 3 m/s 768 mmHg 88%
    22:00 -9°C° 0 mm 4 m/s 767 mmHg 89%
    23:00 -8°C° 0 mm 4 m/s 766 mmHg 91%
    Arată mai mult